Home > Weather > Macon > Past weeks

Flag for U.S.A. Weather for the Past 2 Weeks in Macon, Georgia, U.S.A.

Now
66 °F

Sunny.


Feels Like: 66 °F
Forecast: 40 / 64 °F
Wind: 9 mph from Southwest

Location: Middle Georgia Regional Airport

Current Time: Feb 12, 2016 at 6:06:39 PM

Latest Report: Feb 12, 2016 at 4:53 PM


Visibility: 10 mi

Pressure: 30.02 "Hg

Humidity: 49%

Dew point: 46 °F

Location of MaconLocation

Historic Weather in Macon — Graph

°F

Macon Temperature Yesterday

Maximum temperature yesterday: 62 °F (at 3:53 PM)
Minimum temperature yesterday: 25 °F (at 6:53 AM)
Average temperature yesterday: 41 °F

High & Low Weather Summary for the Past Weeks

 TemperatureHumidityPressure
High77 °F (Feb 2, 12:53 PM)100% (Feb 1, 9:53 PM)30.40 "Hg (Feb 1, 9:53 PM)
Low25 °F (Feb 11, 6:53 AM)24% (Feb 5, 4:53 PM)29.75 "Hg (Feb 8, 3:53 PM)
Average47 °F68%30.07 "Hg
* Reported Jan 28 3:00 PM — Feb 12 3:53 PM, Macon, Weather by CustomWeather, © 2016

Note: Actual official high and low records may vary slightly from our data, if they occured in-between our weather recording intervals... More about our weather records

Advertising

Macon Weather History for the Previous 24 Hours

 ConditionsComfort  
Time TempWeatherWind HumidityBarometerVisibility
3:53 PM
Fri, Feb 12
67 °FSunny.13 mph47%30.01 "Hg10 mi
2:53 PM65 °FPassing clouds.9 mph49%30.03 "Hg8 mi
1:53 PM63 °FSunny.14 mph52%30.06 "Hg10 mi
12:53 PM58 °FSunny.10 mph62%30.09 "Hg10 mi
11:53 AM51 °FOvercast.7 mph71%30.13 "Hg7 mi
10:53 AM48 °FOvercast.No wind61%30.14 "Hg9 mi
9:53 AM45 °FOvercast.No wind68%30.13 "Hg7 mi
8:53 AM42 °FOvercast.No wind76%30.14 "Hg7 mi
7:53 AM39 °FFog.No wind86%30.13 "Hg6 mi
6:53 AM38 °FOvercast.No wind90%30.14 "Hg10 mi
5:53 AM36 °FClear.3 mph89%30.13 "Hg10 mi
4:53 AM36 °FClear.No wind92%30.12 "Hg9 mi
3:53 AM38 °FClear.3 mph86%30.13 "Hg9 mi
2:53 AM38 °FClear.3 mph90%30.14 "Hg9 mi
1:53 AM40 °FPassing clouds.3 mph86%30.16 "Hg9 mi
12:53 AM42 °FOvercast.3 mph85%30.17 "Hg10 mi
11:53 PM
Thu, Feb 11
41 °FPassing clouds.No wind80%30.19 "Hg10 mi
10:53 PM41 °FPassing clouds.No wind80%30.18 "Hg10 mi
9:53 PM40 °FPassing clouds.No wind80%30.18 "Hg10 mi
8:53 PM44 °FClear.No wind73%30.17 "Hg10 mi
7:53 PM45 °FClear.5 mph65%30.16 "Hg10 mi
6:53 PM51 °FClear.3 mph50%30.15 "Hg10 mi
Weather by CustomWeather, © 2016

See weather overviewHow to use our weather pages